| time (UTC) | temp F | wind direction | speed MPH | gust MPH | rain 1hr in | rain 24hr in | rain mn in | humidity % | barometer mb |
| 20260902223108 | 58 | 0.0 | 0.0 | 0.00 | 0.03 | 0.00 | 95 | 1014.8 | |
| 20260902221617 | 58 | 0.0 | 0.0 | 0.00 | 0.03 | 0.00 | 94 | 1014.7 | |
| 20260902220106 | 58 | 0.0 | 0.0 | 0.00 | 0.03 | 0.00 | 94 | 1014.6 | |
| 20260902214604 | 58 | 0.0 | 0.0 | 0.00 | 0.03 | 0.03 | 94 | 1014.6 | |
| 20260902213103 | 58 | 0.0 | 0.0 | 0.00 | 0.03 | 0.03 | 94 | 1014.6 | |
| 20260902211611 | 58 | 0.0 | 0.0 | 0.00 | 0.03 | 0.03 | 93 | 1014.7 | |
| 20260902210100 | 58 | 0.0 | 0.0 | 0.00 | 0.03 | 0.03 | 93 | 1014.5 | |
| 20260902204556 | 59 | 0.0 | 0.0 | 0.00 | 0.03 | 0.03 | 93 | 1014.6 | |
| 20260902203055 | 59 | 0.0 | 0.0 | 0.00 | 0.03 | 0.03 | 92 | 1014.6 | |
| 20260902201633 | 59 | 0.0 | 0.0 | 0.00 | 0.03 | 0.03 | 92 | 1014.6 | |
| 20260902200112 | 59 | 0.0 | 0.0 | 0.00 | 0.03 | 0.03 | 92 | 1014.8 | |
| 20260902194601 | 59 | 0.0 | 0.0 | 0.00 | 0.03 | 0.03 | 91 | 1014.9 | |
| 20260902193103 | 59 | 0.0 | 0.0 | 0.00 | 0.03 | 0.03 | 91 | 1014.9 | |
| 20260902191601 | 59 | 0.0 | 0.0 | 0.00 | 0.03 | 0.03 | 92 | 1014.7 | |
| 20260902190057 | 59 | 0.0 | 0.0 | 0.00 | 0.03 | 0.03 | 92 | 1014.7 | |
| 20260902184556 | 60 | 0.0 | 0.0 | 0.00 | 0.03 | 0.03 | 92 | 1014.5 | |
| 20260902183101 | 60 | 0.0 | 0.0 | 0.00 | 0.03 | 0.03 | 92 | 1014.4 | |
| 20260902181615 | 60 | 0.0 | 0.0 | 0.00 | 0.03 | 0.03 | 91 | 1014.5 | |
| 20260902174608 | 61 | 0.0 | 0.0 | 0.00 | 0.03 | 0.03 | 90 | 1014.5 | |
| 20260902173056 | 61 | 0.0 | 0.0 | 0.00 | 0.03 | 0.03 | 90 | 1014.5 | |
| 20260902171610 | 61 | 0.0 | 0.0 | 0.00 | 0.03 | 0.03 | 90 | 1014.7 | |
| 20260902170105 | 61 | 0.0 | 0.0 | 0.00 | 0.03 | 0.03 | 89 | 1014.7 | |
| 20260902164602 | 61 | 0.0 | 0.0 | 0.00 | 0.03 | 0.03 | 89 | 1014.7 | |
| 20260902163100 | 62 | 0.0 | 0.0 | 0.00 | 0.03 | 0.03 | 88 | 1014.7 | |
| 20260902161604 | 62 | 0.0 | 0.0 | 0.00 | 0.03 | 0.03 | 87 | 1014.9 | |
| 20260902154614 | 62 | 0.0 | 0.0 | 0.03 | 0.04 | 0.03 | 90 | 1014.9 | |
| 20260902153101 | 61 | 0.0 | 0.0 | 0.03 | 0.04 | 0.03 | 89 | 1014.8 | |
| 20260902151618 | 62 | 0.0 | 0.0 | 0.02 | 0.03 | 0.02 | 86 | 1014.9 | |
| 20260902150057 | 64 | 0.0 | 0.0 | 0.01 | 0.03 | 0.01 | 83 | 1014.9 | |
| 20260902144555 | 67 | 0.0 | 0.0 | 0.00 | 0.01 | 0.00 | 79 | 1014.9 | |
| 20260902143100 | 68 | 0.0 | 0.0 | 0.00 | 0.01 | 0.00 | 76 | 1014.7 | |
| 20260902141558 | 68 | 0.0 | 0.0 | 0.00 | 0.01 | 0.00 | 73 | 1014.7 | |
| 20260902134616 | 69 | 0.0 | 0.0 | 0.00 | 0.01 | 0.00 | 69 | 1014.9 | |
| 20260902133105 | 69 | 0.0 | 0.0 | 0.00 | 0.01 | 0.00 | 72 | 1014.8 | |
| 20260902131559 | 69 | 0.0 | 0.0 | 0.00 | 0.01 | 0.00 | 74 | 1015.0 | |
| 20260902130103 | 69 | 0.0 | 0.0 | 0.00 | 0.01 | 0.00 | 75 | 1014.9 | |
| 20260902124605 | 67 | 0.0 | 0.0 | 0.00 | 0.01 | 0.00 | 76 | 1015.1 | |
| 20260902123056 | 68 | 0.0 | 0.0 | 0.00 | 0.01 | 0.00 | 74 | 1015.1 | |
| 20260902121603 | 69 | 0.0 | 0.0 | 0.00 | 0.01 | 0.00 | 72 | 1015.0 | |
| 20260902120107 | 69 | 0.0 | 0.0 | 0.00 | 0.01 | 0.00 | 71 | 1015.0 | |
| 20260902114603 | 70 | 0.0 | 0.0 | 0.00 | 0.01 | 0.00 | 71 | 1015.0 | |
| 20260902113052 | 69 | 0.0 | 0.0 | 0.00 | 0.01 | 0.00 | 70 | 1015.1 | |
| 20260902111600 | 70 | 0.0 | 0.0 | 0.00 | 0.01 | 0.00 | 68 | 1015.2 | |
| 20260902110056 | 70 | 0.0 | 0.0 | 0.00 | 0.01 | 0.00 | 72 | 1015.2 | |
| 20260902104553 | 68 | 0.0 | 0.0 | 0.00 | 0.01 | 0.00 | 74 | 1015.4 | |
| 20260902103106 | 68 | 0.0 | 0.0 | 0.00 | 0.01 | 0.00 | 75 | 1015.3 | |
| 20260902101558 | 69 | 0.0 | 0.0 | 0.00 | 0.01 | 0.00 | 75 | 1015.1 | |
| 20260902100054 | 68 | 0.0 | 0.0 | 0.00 | 0.01 | 0.00 | 75 | 1015.3 | |
| 20260902094603 | 68 | 0.0 | 0.0 | 0.00 | 0.01 | 0.00 | 77 | 1015.3 | |
| 20260902093138 | 67 | 0.0 | 0.0 | 0.00 | 0.01 | 0.00 | 78 | 1015.4 | |
| 20260902091605 | 67 | 0.0 | 0.0 | 0.00 | 0.01 | 0.00 | 79 | 1015.5 | |
| 20260902090105 | 66 | 0.0 | 0.0 | 0.00 | 0.01 | 0.00 | 81 | 1015.5 | |
| 20260902084603 | 65 | 0.0 | 0.0 | 0.00 | 0.01 | 0.00 | 84 | 1015.5 | |
| 20260902083059 | 64 | 0.0 | 0.0 | 0.00 | 0.01 | 0.00 | 85 | 1015.6 | |
| 20260902081613 | 63 | 0.0 | 0.0 | 0.00 | 0.01 | 0.00 | 86 | 1015.5 | |
| 20260902080058 | 63 | 0.0 | 0.0 | 0.00 | 0.01 | 0.00 | 88 | 1015.6 | |
| 20260902074601 | 62 | 0.0 | 0.0 | 0.00 | 0.01 | 0.00 | 89 | 1015.6 | |
| 20260902073059 | 61 | 0.0 | 0.0 | 0.00 | 0.01 | 0.00 | 90 | 1015.3 | |
| 20260902071604 | 61 | 0.0 | 0.0 | 0.00 | 0.01 | 0.00 | 91 | 1015.3 | |
| 20260902070106 | 61 | 0.0 | 0.0 | 0.00 | 0.01 | 0.00 | 92 | 1015.4 | |
| 20260902064618 | 60 | 0.0 | 0.0 | 0.00 | 0.01 | 0.00 | 93 | 1015.3 | |
| 20260902063100 | 59 | 0.0 | 0.0 | 0.00 | 0.01 | 0.00 | 93 | 1015.4 | |
| 20260902061559 | 59 | 0.0 | 0.0 | 0.00 | 0.01 | 0.00 | 93 | 1015.3 | |
| 20260902060110 | 58 | 0.0 | 0.0 | 0.00 | 0.01 | 0.00 | 94 | 1015.3 | |
| 20260902054602 | 58 | 0.0 | 0.0 | 0.00 | 0.01 | 0.00 | 95 | 1015.3 | |
| 20260902053055 | 57 | 0.0 | 0.0 | 0.00 | 0.01 | 0.00 | 95 | 1015.3 | |
| 20260902051559 | 57 | 0.0 | 0.0 | 0.00 | 0.01 | 0.00 | 95 | 1015.4 | |
| 20260902050111 | 56 | 0.0 | 0.0 | 0.00 | 0.01 | 0.00 | 95 | 1015.3 | |
| 20260902044610 | 55 | 0.0 | 0.0 | 0.00 | 0.01 | 0.00 | 95 | 1015.3 | |
| 20260902043110 | 55 | 0.0 | 0.0 | 0.00 | 0.01 | 0.00 | 95 | 1015.3 | |
| 20260902041601 | 54 | 0.0 | 0.0 | 0.00 | 0.01 | 0.00 | 94 | 1015.3 | |
| 20260902040111 | 54 | 0.0 | 0.0 | 0.00 | 0.01 | 0.00 | 94 | 1015.4 | |
| 20260902034607 | 54 | 0.0 | 0.0 | 0.00 | 0.01 | 0.00 | 94 | 1015.5 | |
| 20260902033107 | 55 | 0.0 | 0.0 | 0.00 | 0.01 | 0.00 | 94 | 1015.5 | |
| 20260902031603 | 55 | 0.0 | 0.0 | 0.00 | 0.01 | 0.00 | 94 | 1015.5 | |
| 20260902030058 | 55 | 0.0 | 0.0 | 0.00 | 0.01 | 0.00 | 93 | 1015.5 | |
| 20260902024609 | 55 | 0.0 | 0.0 | 0.00 | 0.01 | 0.00 | 93 | 1015.3 | |
| 20260902023106 | 55 | 0.0 | 0.0 | 0.00 | 0.01 | 0.00 | 93 | 1015.5 | |
| 20260902021603 | 55 | 0.0 | 0.0 | 0.00 | 0.01 | 0.00 | 93 | 1015.3 | |
| 20260902020107 | 55 | 0.0 | 0.0 | 0.00 | 0.01 | 0.00 | 93 | 1015.5 | |
| 20260902014603 | 55 | 0.0 | 0.0 | 0.00 | 0.01 | 0.00 | 92 | 1015.4 | |
| 20260902013100 | 56 | 0.0 | 0.0 | 0.00 | 0.01 | 0.00 | 92 | 1015.2 | |
| 20260902011603 | 56 | 0.0 | 0.0 | 0.00 | 0.01 | 0.00 | 91 | 1015.2 | |
| 20260902010101 | 56 | 0.0 | 0.0 | 0.00 | 0.01 | 0.00 | 91 | 1015.4 | |
| 20260902004604 | 57 | 0.0 | 0.0 | 0.00 | 0.01 | 0.00 | 91 | 1015.4 | |
| 20260902003104 | 57 | 0.0 | 0.0 | 0.00 | 0.01 | 0.00 | 91 | 1015.3 | |
| 20260902001600 | 57 | 0.0 | 0.0 | 0.00 | 0.01 | 0.00 | 91 | 1015.3 | |
| 20260901234602 | 58 | 0.0 | 0.0 | 0.00 | 0.01 | 0.00 | 92 | 1015.5 | |
| 20260901233102 | 58 | 0.0 | 0.0 | 0.00 | 0.01 | 0.00 | 93 | 1015.4 | |
| 20260901231557 | 58 | 0.0 | 0.0 | 0.00 | 0.01 | 0.00 | 93 | 1015.2 | |
| 20260901224602 | 59 | 0.0 | 0.0 | 0.00 | 0.01 | 0.00 | 92 | 1015.0 |